(7909) Ziffer = 1975 SK = 1991 NB5 = 1986 RG13 = 1981 WZ8

Discovered at Palomar on 1975-09-30 by S. J. Bus.
(7909) Ziffer = 1975 SK

Julie Ziffer (b. 1974) is a professor of physics at the University of Southern Maine, Portland, ME. Her research contributions include spectroscopic studies of primitive carbonaceous minor planets. [Ref: Minor Planet Circ. 79417]

Orbit

Orbit type: Main Belt

Note: WebGL enabled browser required.

epoch2024-03-31.0
epoch JD2460400.5
perihelion date2021-01-03.21031
perihelion JD2459217.71032
argument of perihelion (°)329.76557
ascending node (°)69.44145
inclination (°)2.38900
eccentricity0.1775892
perihelion distance (AU)2.6096040
Tisserand w.r.t. Jupiter3.2
ΔV w.r.t. Earth (km/sec)10.2
semimajor axis (AU)3.1731150
mean anomaly (°)206.24474
mean daily motion (°/day)0.17437140
aphelion distance (AU)3.737
period (years)5.65
P-vector [x]0.77445728
P-vector [y]0.58845276
P-vector [z]0.23224830
Q-vector [x]-0.63142114
Q-vector [y]0.69635929
Q-vector [z]0.34116138
absolute magnitude13.66
phase slope0.15
uncertainty0
referenceE2024-G77
observations used2197
oppositions28
arc length (days)17720
first opposition used1975
last opposition used2024
residual rms (arc-secs)0.62
perturbers coarse indicatorM-v
perturbers precise indicator003Ek
first observation date used1975-09-30.0
last observation date used2024-04-05.0
computer nameMPCLINUX
JD of orbit computation2456937.419125
perihelion JD uncertainty (days)6.7794E-05
argument of perihelion uncertainty (°)1.0505E-04
ascending node uncertainty (°)1.0431E-04
inclination uncertainty (°)3.8841E-06
eccentricity uncertainty 3.6640E-08
perihelion distance uncertainty (AU)1.1650E-07
Minimum Orbit Intersection Distances (in AU)
for orbit epoch: 2460400.5, reference: E2024-G77
Mercury2.28603
Venus1.88616
Earth1.61803
Mars1.13764
Jupiter1.6774
Saturn5.95187
Uranus14.866
Neptune26.9199

Observations

2227 total observations over interval: 1975 09 30.31267 – 2023 06 24.224755
These data are available for download (format description).

Date (UT) J2000 RA J2000 Dec Magn Location Ref
1975 09 30.31267 01 12 44.49 +04 09 24.9 17.2   675 – Palomar Mountain MPC 13232
1975 10 01.31736 01 12 01.54 +04 05 23.2   675 – Palomar Mountain MPC 13232
1975 10 02.39462 01 11 14.63 +04 01 01.3   675 – Palomar Mountain MPC 13232
1981 11 25.94501 04 45 03.56 +22 16 55.1 17.5   095 – Crimea-Nauchnyi MPC 9891
1986 09 09.93366 23 51 21.95 -05 04 01.8 16.0 V 095 – Crimea-Nauchnyi MPC 14690
1991 07 10.14410 19 58 40.29 -23 10 07.7 17.3   809 – European Southern Observatory, La Silla MPC 19802
1991 07 10.15451 19 58 39.81 -23 10 09.2   809 – European Southern Observatory, La Silla MPC 19802
1991 07 10.16493 19 58 39.31 -23 10 11.0   809 – European Southern Observatory, La Silla MPC 19802
1991 07 11.09410 19 57 54.53 -23 12 51.5   809 – European Southern Observatory, La Silla MPC 19802
1991 07 11.10451 19 57 54.04 -23 12 53.2   809 – European Southern Observatory, La Silla MPC 19802
1991 07 11.11493 19 57 53.52 -23 12 55.4   809 – European Southern Observatory, La Silla MPC 19802
1992 09 30.32082 03 20 23.43 +16 20 43.4   801 – Oak Ridge Observatory MPC 21052
1992 09 30.38442 03 20 22.61 +16 20 41.9   801 – Oak Ridge Observatory MPC 21052
1992 10 21.41493 03 11 19.38 +15 54 48.0 17.8   675 – Palomar Mountain MPC 29398
1992 10 21.44306 03 11 18.19 +15 54 43.5   675 – Palomar Mountain MPC 29398
1992 10 22.36667 03 10 40.57 +15 52 50.7 17.5   675 – Palomar Mountain MPC 28991
1992 10 22.39861 03 10 39.22 +15 52 45.9   675 – Palomar Mountain MPC 28991
1992 10 29.25949 03 05 33.21 +15 37 21.8   801 – Oak Ridge Observatory MPC 21052
1992 11 21.16830 02 46 56.07 +14 41 45.2   801 – Oak Ridge Observatory MPC 21223
1992 11 21.18381 02 46 55.36 +14 41 43.1   801 – Oak Ridge Observatory MPC 21223
1992 11 27.21007 02 42 45.92 +14 30 29.8   675 – Palomar Mountain MPC 29398
1992 11 27.24115 02 42 44.65 +14 30 28.3 17.5   675 – Palomar Mountain MPC 29398
1992 11 29.16175 02 41 33.65 +14 27 30.0   801 – Oak Ridge Observatory MPC 21223
1992 11 29.18447 02 41 32.80 +14 27 28.0   801 – Oak Ridge Observatory MPC 21223
1994 02 11.34931 09 58 39.23 +15 54 58.6 18.8   675 – Palomar Mountain MPC 24462
1994 02 11.42344 09 58 35.45 +15 55 19.7   675 – Palomar Mountain MPC 24462
1997 08 31.90932 22 13 19.64 -15 00 15.7 17.7 V 610 – Pianoro MPS 1
1997 08 31.92846 22 13 18.70 -15 00 20.2   610 – Pianoro MPS 1
1997 08 31.93904 22 13 18.18 -15 00 22.7   610 – Pianoro MPS 1
1997 09 28.22367 21 56 54.28 -16 12 56.8   684 – Prescott MPS 1
1997 09 28.22631 21 56 54.23 -16 12 57.0   684 – Prescott MPS 1
1997 09 28.24078 21 56 53.90 -16 12 57.8 17.4 R 684 – Prescott MPS 1
1997 09 29.25255 21 56 33.24 -16 13 48.0 17.6 R 684 – Prescott MPS 1
1997 09 29.25510 21 56 33.19 -16 13 48.0   684 – Prescott MPS 1
1997 09 29.25765 21 56 33.14 -16 13 48.4   684 – Prescott MPS 1
1998 12 14.36288 06 16 00.98 +24 39 18.2 19.0   704 – Lincoln Laboratory ETS, New Mexico MPS 3549
1998 12 14.38463 06 15 59.62 +24 39 18.9 18.3   704 – Lincoln Laboratory ETS, New Mexico MPS 3549
1998 12 14.40650 06 15 58.41 +24 39 21.0 18.0   704 – Lincoln Laboratory ETS, New Mexico MPS 3549
1998 12 14.42827 06 15 57.16 +24 39 22.9 18.3   704 – Lincoln Laboratory ETS, New Mexico MPS 3549
1998 12 17.30378 06 13 19.59 +24 42 53.5 18.2   704 – Lincoln Laboratory ETS, New Mexico MPS 3549
1998 12 17.32697 06 13 18.25 +24 42 55.0 18.3   704 – Lincoln Laboratory ETS, New Mexico MPS 3549
1998 12 17.35019 06 13 16.87 +24 42 57.2 18.7   704 – Lincoln Laboratory ETS, New Mexico MPS 3549
1998 12 17.37323 06 13 15.62 +24 42 59.1 18.7   704 – Lincoln Laboratory ETS, New Mexico MPS 3549
1999 01 19.19178 05 46 19.90 +25 02 42.7 18.8   704 – Lincoln Laboratory ETS, New Mexico MPS 3759
1999 01 19.23632 05 46 18.25 +25 02 43.1 19.0   704 – Lincoln Laboratory ETS, New Mexico MPS 3759
1999 01 19.25857 05 46 17.43 +25 02 43.3 19.7   704 – Lincoln Laboratory ETS, New Mexico MPS 3759
1999 01 19.28079 05 46 16.61 +25 02 41.2 19.4   704 – Lincoln Laboratory ETS, New Mexico MPS 3759
2000 02 06.39272 11 45 13.20 +05 02 12.2 19.0   704 – Lincoln Laboratory ETS, New Mexico MPS 10595
2000 02 06.40745 11 45 12.94 +05 02 15.2 19.5   704 – Lincoln Laboratory ETS, New Mexico MPS 10595
2000 02 06.42217 11 45 12.45 +05 02 19.1 19.6   704 – Lincoln Laboratory ETS, New Mexico MPS 10595
2000 02 06.43686 11 45 12.03 +05 02 22.1 19.5   704 – Lincoln Laboratory ETS, New Mexico MPS 10595
2000 02 16.36990 11 40 13.41 +05 40 08.5 19.6 R 703 – Catalina Sky Survey MPS 10595
2000 02 16.38540 11 40 12.78 +05 40 12.9 18.4 R 703 – Catalina Sky Survey MPS 10595
2000 02 16.40086 11 40 12.31 +05 40 16.8 19.5 R 703 – Catalina Sky Survey MPS 10595
2000 02 16.41632 11 40 11.82 +05 40 22.5 18.2 R 703 – Catalina Sky Survey MPS 10595
2000 03 12.34016 11 22 59.31 +07 34 39.1 18.8   704 – Lincoln Laboratory ETS, New Mexico MPS 11630
2000 03 12.35288 11 22 58.69 +07 34 42.7 18.9   704 – Lincoln Laboratory ETS, New Mexico MPS 11630
2000 03 12.37834 11 22 57.53 +07 34 49.5 19.0   704 – Lincoln Laboratory ETS, New Mexico MPS 11630
2000 03 12.39105 11 22 57.03 +07 34 51.7 19.3   704 – Lincoln Laboratory ETS, New Mexico MPS 11630
2001 04 23.32017 14 47 16.15 -14 28 38.8 18.7   704 – Lincoln Laboratory ETS, New Mexico MPS 30510
2001 04 23.33357 14 47 15.51 -14 28 35.4 18.9   704 – Lincoln Laboratory ETS, New Mexico MPS 30510
2001 04 23.34720 14 47 14.96 -14 28 34.2 19.5   704 – Lincoln Laboratory ETS, New Mexico MPS 30510
2001 04 24.52979 14 46 23.37 -14 24 59.0 19.7   608 – Haleakala-AMOS MPS 30510
2001 04 24.54037 14 46 22.92 -14 24 57.4 20.0   608 – Haleakala-AMOS MPS 30510
2001 04 24.55115 14 46 22.38 -14 24 56.1 20.4   608 – Haleakala-AMOS MPS 30510
2001 04 27.26751 14 44 22.37 -14 16 40.5 19.2   704 – Lincoln Laboratory ETS, New Mexico MPS 30510
2001 04 27.28063 14 44 21.80 -14 16 36.3 18.9   704 – Lincoln Laboratory ETS, New Mexico MPS 30510
2001 04 27.29437 14 44 21.25 -14 16 34.4 19.0   704 – Lincoln Laboratory ETS, New Mexico MPS 30510
2001 04 27.30814 14 44 20.58 -14 16 31.7 18.9   704 – Lincoln Laboratory ETS, New Mexico MPS 30510
2001 04 30.30121 14 42 06.71 -14 07 17.1 18.5   704 – Lincoln Laboratory ETS, New Mexico MPS 30510
2001 04 30.32802 14 42 05.47 -14 07 13.4 18.8   704 – Lincoln Laboratory ETS, New Mexico MPS 30510
2001 04 30.34144 14 42 04.77 -14 07 10.4 18.5   704 – Lincoln Laboratory ETS, New Mexico MPS 30510
2001 05 02.39644 14 40 32.29 -14 00 47.5 18.3   644 – Palomar Mountain/NEAT MPS 30510
2001 05 02.40776 14 40 31.80 -14 00 45.3 18.6   644 – Palomar Mountain/NEAT MPS 30510
2001 05 02.41773 14 40 31.33 -14 00 43.5 18.5   644 – Palomar Mountain/NEAT MPS 30510
2001 05 14.22286 14 31 49.90 -13 24 47.8 19.9 V 691 – Steward Observatory, Kitt Peak-Spacewatch MPS 31069
2001 05 14.24533 14 31 48.88 -13 24 43.6 19.4 V 691 – Steward Observatory, Kitt Peak-Spacewatch MPS 31069
2001 05 14.26719 14 31 47.92 -13 24 39.8 19.4 V 691 – Steward Observatory, Kitt Peak-Spacewatch MPS 31069
2001 05 15.23976 14 31 06.84 -13 21 49.4 18.2 R 699 – Lowell Observatory-LONEOS MPS 31069
2001 05 15.26783 14 31 05.60 -13 21 45.0   699 – Lowell Observatory-LONEOS MPS 31069
2001 05 15.29598 14 31 04.35 -13 21 40.1   699 – Lowell Observatory-LONEOS MPS 31069
2001 05 15.32423 14 31 03.10 -13 21 34.5   699 – Lowell Observatory-LONEOS MPS 31069
2001 05 17.27997 14 29 41.85 -13 16 02.7 17.3   704 – Lincoln Laboratory ETS, New Mexico MPS 31069
2001 05 17.29181 14 29 41.29 -13 16 00.8 17.2   704 – Lincoln Laboratory ETS, New Mexico MPS 31069
2001 05 17.30363 14 29 40.80 -13 15 58.7 17.4   704 – Lincoln Laboratory ETS, New Mexico MPS 31069
2001 05 17.31543 14 29 40.30 -13 15 56.1 17.1   704 – Lincoln Laboratory ETS, New Mexico MPS 31069
2001 05 27.31616 14 23 20.32 -12 50 22.5 20.3   608 – Haleakala-AMOS MPS 31465
2001 05 27.32758 14 23 19.98 -12 50 21.6 20.3   608 – Haleakala-AMOS MPS 31465
2001 05 27.33879 14 23 19.58 -12 50 20.0 20.5   608 – Haleakala-AMOS MPS 31465
